Regional Weather Roundup
Issued by NWS Bismarck, ND

Home | Current Version | Previous Version | Text Only | Print | Product List | Glossary On
Versions: 1 2 3 4 5 6 7 8 9 10 11 12 13 14 15 16 17 18 19 20 21 22 23 24 25 26 27 28 29 30 31 32 33 34 35 36 37 38 39 40 41 42 43 44 45 46 47 48 49 50
000
ASUS43 KBIS 251820
RWRBIS

NWR BROADCAST TEXT
NATIONAL WEATHER SERVICE BISMARCK ND
1200 PM CST SUN JAN 25 2015

NOTE: "FAIR" INDICATES FEW OR NO CLOUDS BELOW 12,000 FEET WITH NO
SIGNIFICANT WEATHER AND/OR OBSTRUCTIONS TO VISIBILITY.


CITY           SKY/WX    TMP DP  RH WIND       PRES   REMARKS
WILLISTON      PTSUNNY   36  30  79 SW6       29.95F
MINOT          CLOUDY    27  25  92 CALM      29.96F FOG
MINOT AFB      CLOUDY    26  26  99 S3        29.96F
BISMARCK       CLOUDY    35  32  88 W10       30.00F
DICKINSON      CLOUDY    37  29  72 W8        29.95F
GARRISON         N/A     33  30  88 W9        29.96F
HETTINGER ARPT MOSUNNY   38  28  67 W9        30.00F
JAMESTOWN      CLOUDY    23  18  81 CALM      30.00F
BEACH          FAIR      37  32  81 SW5       29.96F
CARRINGTON     CLOUDY    23  23 100 MISG      30.00S
CROSBY         CLOUDY    32  32 100 SW7       29.93F
HARVEY         CLOUDY    25  23  93 CALM      30.00R
HAZEN          CLOUDY    34  30  86 W7        29.99F
LINTON         CLOUDY    36  36 100 NW3       29.99F
MANDAN         MOCLDY    34  32  93 W9        30.00S FOG
OAKES            N/A     23  21  93 CALM      30.04F
RUGBY          CLOUDY    19  18  93 S7        29.98F WCI  10
STANLEY        CLOUDY    32  32 100 W8        29.94F
TIOGA          CLOUDY    32  32 100 SW9       29.97F
WATFORD CITY   FAIR      34  30  86 SW6       29.94F
$$

CITY           SKY/WX    TMP DP  RH WIND       PRES   REMARKS
GRAND FORKS    PTSUNNY   22  11  62 CALM      30.05R
GRAND FORKS AF SUNNY     21  11  66 VRB2      30.06R
DEVILS LAKE    CLOUDY    21  14  73 W7        30.00R WCI  13
FARGO          SUNNY     25  14  63 CALM      30.04F
CANDO          CLOUDY    19  14  79 SW6       29.99F WCI  11
CAVALIER       FAIR      19  10  68 S6        30.02F WCI  11
GWINNER        PTCLDY    25  18  74 CALM      30.05S
LANGDON        CLOUDY    19  14  79 W10       29.98S WCI   8
ROLLA          CLOUDY    18  18 100 SW13      29.96F FOG     WCI   4
WALHALLA         N/A     21  10  63 S3        30.02F
$$

CITY           SKY/WX    TMP DP  RH WIND       PRES   REMARKS
ABERDEEN       CLOUDY    29  23  78 NW5       30.05F
MOBRIDGE       CLOUDY    39  34  82 NW6       29.98F
BUFFALO          N/A     43  24  47 W10       29.92F
RAPID CITY     SUNNY     45  18  34 S3        30.04S
GLASGOW        PTSUNNY   36  29  75 SE8       29.88F
SIDNEY         MOSUNNY   37  28  70 S9        29.97F
WOLF POINT     PTSUNNY   36  30  79 E3        29.91F
GLENDIVE       MOSUNNY   37  28  70 S12       29.94F
MILES CITY     CLOUDY    37  30  75 SE8       29.96F
BAKER          PTSUNNY   39  28  64 W9        29.98F
$$

CITY           SKY/WX    TMP DP  RH WIND       PRES   REMARKS
BILLINGS       CLOUDY    48  31  51 W17       30.02R
GREAT FALLS    CLOUDY    52  36  54 SW20G31   29.99R
REGINA         CLOUDY    28  28 100 S12       29.83F WCI  18
ESTEVAN        CLOUDY    30  28  93 S7        29.93F
$$



USA.gov is the U.S. government's official web portal to all federal, state and local government web resources and services.